Weather History for State College, PA

Change the Weather History Date:

Tuesday, September 24, 2013

  Actual Average Record
Temperature  
Mean Temperature 55 °F -  
Max Temperature 71 °F 65 °F 88 °F (1930)
Min Temperature 39 °F 46 °F 30 °F (1974)
Degree Days  
Heating Degree Days 10    
Growing Degree Days 5 (Base 50)    
Moisture  
Dew Point 42 °F    
Average Humidity 75    
Maximum Humidity 100    
Minimum Humidity 27    
Precipitation  
Precipitation 0.00 in - - ()
Sea Level Pressure  
Sea Level Pressure 30.07 in    
Wind  
Wind Speed 0 mph (North)    
Max Wind Speed 5 mph    
Max Gust Speed -    
Visibility 10 miles    
Events      
Averages and records for this station are not official NWS values.
T = Trace of Precipitation, MM = Missing Value Source: NWS Daily Summary

Daily Weather History Graph

Daily Weather History Graph

Search for Another Location

Airport:

Trip Planner

Search our weather history database for the weather conditions in past years. The results will help you decide how hot, cold, wet, or windy it might be!

Date:

Astronomy

Sep. 24, 2013 Rise Set
Actual Time 7:01 AM EDT 7:04 PM EDT
Civil Twilight 6:33 AM EDT 7:32 PM EDT
Nautical Twilight 6:01 AM EDT 8:03 PM EDT
Astronomical Twilight 5:29 AM EDT 8:36 PM EDT
Moon 10:18 PM EDT (9/24) 12:15 PM EDT (9/24)
Length of Visible Light 12h 58m
Length of Day
12h 03m
Waning Gibbous, 73% of the Moon is Illuminated
Sep 24
Waning Gibbous
Sep 26
Last Quarter
Oct 4
New
Oct 11
First Quarter
Oct 18
Full

Hourly Weather History & Observations

Time (EDT) Temp. Windchill Dew Point Humidity Pressure Visibility Wind Dir Wind Speed Gust Speed Precip Events Conditions
12:15 AM 45.5 °F - 43.3 °F 92% 30.12 in 10.0 mi Calm Calm - N/A   Clear
12:35 AM 45.5 °F - 42.8 °F 90% 30.12 in 10.0 mi Calm Calm - N/A   Clear
12:55 AM 44.2 °F - 42.1 °F 92% 30.12 in 10.0 mi Calm Calm - N/A   Clear
1:15 AM 45.5 °F 44.2 °F 42.1 °F 88% 30.12 in 10.0 mi North 3.5 mph - N/A   Scattered Clouds
1:35 AM 43.0 °F - 41.5 °F 95% 30.12 in 10.0 mi Calm Calm - N/A   Scattered Clouds
1:55 AM 45.0 °F - 42.3 °F 90% 30.12 in 10.0 mi Calm Calm - N/A   Scattered Clouds
2:15 AM 42.8 °F - 41.5 °F 95% 30.13 in 10.0 mi Calm Calm - N/A   Scattered Clouds
2:35 AM 42.8 °F - 41.9 °F 97% 30.13 in 10.0 mi Calm Calm - N/A   Scattered Clouds
2:55 AM 42.3 °F - 41.4 °F 97% 30.12 in 10.0 mi Calm Calm - N/A   Scattered Clouds
3:35 AM 41.9 °F - 41.2 °F 97% 30.11 in 10.0 mi Calm Calm - N/A   Scattered Clouds
3:55 AM 41.0 °F - 39.7 °F 95% 30.12 in 10.0 mi Calm Calm - N/A   Scattered Clouds
4:15 AM 41.7 °F - 40.5 °F 95% 30.12 in 10.0 mi Calm Calm - N/A   Clear
4:35 AM 41.0 °F - 39.7 °F 95% 30.12 in 10.0 mi Calm Calm - N/A   Clear
4:55 AM 39.9 °F - 39.0 °F 97% 30.12 in 7.0 mi Calm Calm - N/A   Clear
5:35 AM 39.4 °F - 38.7 °F 97% 30.12 in 10.0 mi Calm Calm - N/A   Clear
5:55 AM 39.2 °F - 37.4 °F 93% 30.12 in 10.0 mi Calm Calm - N/A   Clear
6:53 AM 39.2 °F - 37.4 °F 93% 30.12 in 10.0 mi Calm Calm - N/A   Clear
7:53 AM 39.2 °F - 39.2 °F 100% 30.14 in 10.0 mi Calm Calm - N/A   Clear
8:53 AM 44.6 °F - 42.8 °F 93% 30.13 in 10.0 mi Calm Calm - N/A   Clear
9:53 AM 50.0 °F - 44.6 °F 82% 30.14 in 10.0 mi Calm Calm - N/A   Clear
10:53 AM 55.4 °F - 42.8 °F 63% 30.12 in 10.0 mi NNW 3.5 mph - N/A   Clear
11:53 AM 59.0 °F - 41.0 °F 51% 30.10 in 10.0 mi Calm Calm - N/A   Clear
12:53 PM 62.6 °F - 41.0 °F 45% 30.07 in 10.0 mi Calm Calm - N/A   Clear
1:53 PM 66.2 °F - 42.8 °F 43% 30.03 in 10.0 mi Calm Calm - N/A   Clear
2:53 PM 68.0 °F - 42.8 °F 40% 30.02 in 10.0 mi Calm Calm - N/A   Clear
3:53 PM 71.6 °F - 37.4 °F 29% 30.00 in 10.0 mi Calm Calm - N/A   Clear
4:53 PM 71.6 °F - 35.6 °F 27% 29.99 in 10.0 mi Calm Calm - N/A   Clear
5:53 PM 71.6 °F - 39.2 °F 31% 29.97 in 10.0 mi Calm Calm - N/A   Clear
6:53 PM 66.2 °F - 42.8 °F 43% 29.99 in 10.0 mi Calm Calm - N/A   Clear
7:53 PM 62.6 °F - 42.8 °F 48% 29.99 in 10.0 mi Calm Calm - N/A   Clear
8:53 PM 59.0 °F - 44.6 °F 59% 29.99 in 10.0 mi Calm Calm - N/A   Clear
9:15 PM 57.9 °F - 46.4 °F 65% 29.99 in 10.0 mi Calm Calm - N/A   Mostly Cloudy
9:35 PM 54.7 °F - 46.0 °F 73% 30.00 in 10.0 mi Calm Calm - N/A   Scattered Clouds
9:55 PM 56.1 °F - 45.9 °F 68% 29.99 in 10.0 mi Calm Calm - N/A   Scattered Clouds
10:15 PM 55.2 °F - 45.7 °F 70% 29.99 in 10.0 mi Calm Calm - N/A   Scattered Clouds
10:35 PM 53.6 °F - 46.0 °F 76% 29.99 in 10.0 mi Calm Calm - N/A   Scattered Clouds
10:55 PM 55.0 °F - 44.6 °F 68% 29.99 in 10.0 mi NE 4.6 mph - N/A   Scattered Clouds
11:15 PM 54.3 °F - 46.2 °F 74% 29.99 in 10.0 mi Calm Calm - N/A   Scattered Clouds
11:35 PM 49.5 °F - 45.1 °F 85% 29.99 in 10.0 mi Calm Calm - N/A   Scattered Clouds
11:55 PM 50.0 °F - 45.1 °F 83% 30.00 in 10.0 mi Calm Calm - N/A   Scattered Clouds